Regional Weather Roundup
Issued by NWS

Home | Current Version | Previous Version | Graphics & Text | Print | Product List | Glossary On
Versions: 1 2 3 4 5 6 7 8 9 10 11 12 13 14 15 16 17 18 19 20 21 22 23 24 25 26 27 28
000
ASUS45 KTFX 221510
RWRMT
MONTANA REGIONAL WEATHER ROUNDUP
NATIONAL WEATHER SERVICE GREAT FALLS MT
900 AM MDT WED MAR 22 2017

NOTE: "FAIR" INDICATES FEW OR NO CLOUDS BELOW 12000 FEET WITH NO
SIGNIFICANT WEATHER AND/OR OBSTRUCTIONS TO VISIBILITY.

MTZ001>007-043-221600-
WEST OF THE DIVIDE

CITY           SKY/WX    TMP DP  RH WIND       PRES   REMARKS
KALISPELL      CLOUDY    36  36 100 SW8       29.84R WCI  30
MISSOULA       CLOUDY    38  38 100 CALM      29.89S
BUTTE          SUNNY     33  30  88 CALM      29.89S
MULLAN PASS    FOG       32  32 100 VRB7      29.82S VSB 1/4 WCI  26
ANACONDA         N/A     37  30  75 SW3       29.88F
DEER LODGE       N/A     30  30 100 NW3       29.91S VSB 0
EUREKA           N/A     41  37  87 SE13G20   29.82R
HAMILTON         N/A     43  34  70 S9        29.88S
RONAN            N/A     41  38  89 SW7       29.91R
$$

MTZ008-052>055-221600-
SOUTHWEST MONTANA

CITY           SKY/WX    TMP DP  RH WIND       PRES   REMARKS
BOZEMAN        SUNNY     40  37  89 CALM      29.87F
DILLON         SUNNY     38  34  85 S3        29.88R
W YELLOWSTONE  CLOUDY    36  34  93 SW5       29.96R
ENNIS          SUNNY     43  37  81 S12       29.93R
THREE FORKS      N/A     37  13  37 CALM      29.88S
TWIN BRIDGES     N/A     37  32  82 CALM      29.89R
$$

MTZ009-010-012-014-046-048-049-054-221600-
EAST SLOPES AND CENTRAL MONTANA

CITY           SKY/WX    TMP DP  RH WIND       PRES   REMARKS
CUT BANK         N/A     42  29  59 SW22      29.71S
GREAT FALLS    SUNNY     49  32  52 SW22G28   29.77S
HELENA         SUNNY     37  36  96 SW3       29.87R
AUGUSTA          N/A     41  33  72 SW20      29.77R
BOWMANS CRNR     N/A     44  31  62 SW15      29.78R
CHOTEAU          N/A     46  34  61 S7G15     29.77R
CONRAD           N/A     44  41  89 S2        29.79R
FAIRFIELD        N/A     44  33  64 SW20G26   29.75S
POWER            N/A     46  32  59 SW15G23   29.76R
RAYNESFORD       N/A     47  33  58 W14       29.79S
$$

MTZ011-013-016-021-045-047-050-051-221600-
NORTH CENTRAL MONTANA

CITY           SKY/WX    TMP DP  RH WIND       PRES   REMARKS
HAVRE          SUNNY     36  32  85 CALM      29.75S
LEWISTOWN      SUNNY     47  36  65 N5        29.80R
N BAR RANCH      N/A     50  36  57 NW14      29.80R
CHINOOK          N/A     36  34  93 NE3       29.77S
DENTON           N/A     49  36  61 W13       29.76R
FORT BENTON      N/A     45  36  70 MISG      29.78S
GEYSER           N/A     47  34  60 W15       29.78R
GRASS RANGE      N/A     49  37  65 W20       29.74R
STANFORD       PTSUNNY   48  31  52 W12G22    29.79R
WINIFRED         N/A     43 N/A N/A SW10      29.78R
$$

MTZ017>020-022>027-061-062-221600-
NORTHEAST MONTANA

CITY           SKY/WX    TMP DP  RH WIND       PRES   REMARKS
GLASGOW        CLOUDY    34  28  79 SE17      29.80S WCI  23
JORDAN           N/A     36  31  82 SE12      29.77F WCI  28
SIDNEY         CLOUDY   N/A N/A N/A S16       29.92F
WOLF POINT     CLOUDY    36  29  75 SE8       29.86S WCI  30
MALTA          CLOUDY    36  34  93 CALM      29.79F
PLENTYWOOD       N/A     30  25  80 SE16      29.88F WCI  19
POPLAR           N/A     34  28  80 SE12      29.87F WCI  25
$$

MTZ028>42-056>058-221600-
SOUTHCENTRAL AND SOUTHEAST MONTANA

CITY           SKY/WX    TMP DP  RH WIND       PRES   REMARKS
BAKER          CLOUDY   N/A N/A N/A MISG      29.89R
BILLINGS       CLOUDY    38  37  97 SW17      29.82R WCI  28
LIVINGSTON     SUNNY     38  33  82 NW12      29.83F WCI  30
MILES CITY     CLOUDY    35  29  78 SE10      29.83R WCI  27
BIG TIMBER     SUNNY     43  37  81 W13G18    29.84R
FORSYTH          N/A     36  36 100 E6        29.81F WCI  31
HARLOWTON        N/A     46  38  75 NW21      29.80S
LAUREL           N/A     38  35  89 S5        29.83S
$$

REGIONAL REPORTS...DAKOTAS

CITY           SKY/WX    TMP DP  RH WIND       PRES   REMARKS
WILLISTON      CLOUDY    31  23  72 SE16G23   29.94F WCI  20
MINOT          CLOUDY    27  18  69 SE17G29   30.08F WCI  14
DICKINSON      CLOUDY    30  24  78 S29       29.92S WCI  15
BEACH            N/A    N/A N/A N/A MISG        N/A
TIOGA          CLOUDY    23  23 100 S30       29.97F WCI   5
WATFORD CITY   CLOUDY    30  23  74 S16G23    29.96S WCI  19
BISMARCK       CLOUDY    31  21  66 SE22      30.13F WCI  18
GRAND FORKS    CLOUDY    24   5  44 S21G26    30.39S WCI   9
FARGO          CLOUDY    26   9  48 SE20G29   30.40F WCI  12
BUFFALO SD       N/A     32  29  88 SE16      29.82F WCI  21
RAPID CITY     CLOUDY    39  34  82 S35G44    29.91F WCI  26
$$

REGIONAL REPORTS...WYOMING/IDAHO/WASHINGTON

CITY           SKY/WX    TMP DP  RH WIND       PRES   REMARKS
GILLETTE       CLOUDY    39  33  79 S30       29.77F WCI  27
SHERIDAN       CLOUDY    38  36  92 CALM      29.81F
BUFFALO WY     CLOUDY    44  35  70 NW10      29.81R
CODY           CLOUDY    52  34  50 VRB3      29.86R
YELLOWSTONE LA   N/A     34  32  92 CALM      30.00R
IDAHO FALLS    CLOUDY    42  42 100 SW6       29.95R
SALMON         MOSUNNY   37  34  87 CALM      29.90R
BOISE            N/A     44  38  79 SE9       29.91R
SPOKANE        CLOUDY    42  39  89 CALM      29.85R FOG
$$

REGIONAL REPORTS...ALBERTA

CITY           SKY/WX    TMP DP  RH WIND       PRES   REMARKS
EDMONTON       CLOUDY    30  23  74 E5        29.62S
CALGARY        PTSUNNY   36  34  93 SW3       29.55S
LETHBRIDGE     MOSUNNY   45  34  65 SW20G28   29.64S
MEDICINE HAT   PTSUNNY   43  34  70 S17G25    29.63F
WATERTON GATE    N/A     43  28  56 SW24G33     N/A
CARDSTON         N/A     46  25  42 SW14G23     N/A
MILK RIVER       N/A     37  32  81 S5          N/A
ONEFOUR          N/A     36  34  93 SE7         N/A  WCI  30
$$

REGIONAL REPORTS...SASKATCHEWAN

CITY           SKY/WX    TMP DP  RH WIND       PRES   REMARKS
SWIFT CURRENT  CLOUDY    32  32 100 S17G23    29.70R WCI  21
REGINA         CLOUDY    23  19  86 SE24G33   29.91F WCI   7
SASKATOON      CLOUDY    27  18  69 SE18      29.84F WCI  13
VAL MARIE        N/A     32  30  93 S10         N/A  WCI  24
ROCKGLEN         N/A     28  27  93 S17         N/A  WCI  16
$$




USA.gov is the U.S. government's official web portal to all federal, state and local government web resources and services.